星链-33976 (STARLINK-33976)

导读

STARLINK-33976是由美国于2025年5月7日发射的卫星,隶属于SpaceX星链项目,星链计划旨在构建全球卫星互联网星座,为全球提供高速低延迟网络覆盖。该卫星加入了近地轨道不断扩容的星链星座,持续推动全球互联网络基础设施建设,服务各类军民及民用通信需求。

基本信息
目录编号:
63858
目录名称:
STARLINK-33976
国际标识:
2025-093Y
轨道中心:
EARTH
卫星名称:
星链-33976
卫星全名:
星链-33976 (STARLINK-33976)
卫星状态:
在轨 (已飞行403 天)
发射日期:
2025-05-07 UTC
国别 :
美国 (US)
星等 :
--
轨道信息
数据来源 国际轨道数据 AOE轨道数据
星历时间 2026-06-13T07:11:55+0800
1天前
查看轨道信息
2026-06-12T15:00:00+0800
1天前
查看轨道信息
半长轴 6861.08km 6861.23km
偏心率 0.0002519 0.0000874
轨道倾角 43.008° 43.001°
近地点辐角 289.051° 295.665°
升交点赤经 259.786° 263.600°
平近点角 71.007° 308.351°
近地点 481.214km 482.493km
远地点 484.672km 483.693km
周期 94.265分钟 94.268分钟
每日圈数 15.276155 15.275656
详细信息
固有亮度:
5
最大亮度:
2.5
卫星平台:
Starlink V1.0
覆盖范围:
全球
运营商:
太空探索技术公司
运营商所在国:
美国
制造商(研发单位):
太空探索技术公司
制造商所在国:
美国
使用方式:
暂无
卫星简介
Starlink 计划是 SpaceX 推出的全球卫星互联网项目,通过发射低轨道卫星,为全球尤其是偏远地区提供高速、低延迟的互联网服务。自 2019 年起,Starlink 已部署数千颗卫星,旨在缩小全球数字鸿沟,推动互联网普及。该项目还为军事、航空等行业提供通信支持,带来广泛经济效益。
2D轨道图
3D轨道图
轨道高度分析图
轨道倾角分析图
轨道综合分析图
查看轨道综合分析图